Stations météo

Publicité
Kleine Brogel, Belgique (6479): Température de l'air & dewpoint: 20.09.2017 13:00:00 - 26.09.2017 13:00:00 (CEST)Kleine Brogel, Belgique (6479): Vitesse du vent & gusts: 20.09.2017 13:00:00 - 26.09.2017 13:00:00 (CEST)Kleine Brogel, Belgique (6479): Direction du vent: 20.09.2017 13:00:00 - 26.09.2017 13:00:00 (CEST)Kleine Brogel, Belgique (6479): reduced air pressure: 20.09.2017 13:00:00 - 26.09.2017 13:00:00 (CEST)Kleine Brogel, Belgique (6479): visibility: 20.09.2017 13:00:00 - 26.09.2017 13:00:00 (CEST)
Date & Time tt [°C] td [°C] ff [km/h] ff [knt] fx [km/h] fx [knt] dd ppp [hPa] vv [km]
26.09.2017 13:00:00 - - - - - - - - -
26.09.2017 12:00:00 16,1 12,5 8 4 14 8 NE 1022,3 9
26.09.2017 11:00:00 13,9 12,9 7 4 - - NE 1022,1 1,7
26.09.2017 10:00:00 12,3 12,3 7 4 7 4 NE 1022,1 0,5
26.09.2017 09:00:00 11,1 11,1 5 3 11 6 NE 1022,1 0,2
26.09.2017 08:00:00 10,5 10,5 4 2 - - N 1021,7 0,1
26.09.2017 07:00:00 10,3 10,3 4 2 4 2 N 1021,2 0,1
26.09.2017 06:00:00 10,0 10,0 4 2 7 4 - 1021,1 0,1
26.09.2017 05:00:00 9,8 9,6 4 2 - - N 1021,1 -
26.09.2017 04:00:00 10,6 10,3 4 2 4 2 N 1021,0 0,4
26.09.2017 03:00:00 11,1 10,7 4 2 7 4 N 1021,2 2,5
26.09.2017 02:00:00 12,4 11,7 2 1 - - - 1021,2 3,6
26.09.2017 01:00:00 13,1 12,2 4 2 7 4 - 1021,2 4,8
26.09.2017 00:00:00 12,8 12,1 4 2 7 4 N 1021,2 5
25.09.2017 23:00:00 12,0 11,4 4 2 - - N 1021,2 6
25.09.2017 22:00:00 11,8 11,2 4 2 4 2 N 1021,2 12
25.09.2017 21:00:00 13,0 11,6 2 1 4 2 - 1021,2 10
25.09.2017 20:00:00 15,1 12,1 4 2 - - N 1020,8 15
25.09.2017 19:00:00 17,0 12,1 11 6 18 10 ENE 1020,5 10
25.09.2017 18:00:00 18,1 11,8 11 6 18 10 ENE 1020,2 15
25.09.2017 17:00:00 19,6 11,3 11 6 - - ENE 1020,1 15
25.09.2017 16:00:00 18,8 11,1 11 6 18 10 E 1020,2 15
25.09.2017 15:00:00 18,5 11,9 11 6 18 10 ENE 1020,2 15
25.09.2017 14:00:00 18,8 11,8 11 6 - - E 1020,5 15
25.09.2017 13:00:00 17,5 12,6 11 6 14 8 ENE 1021,0 12
25.09.2017 12:00:00 14,9 11,8 7 4 11 6 ENE 1021,2 7
25.09.2017 11:00:00 11,6 11,6 7 4 - - E 1021,7 1,2
25.09.2017 10:00:00 11,0 11,0 11 6 - - E - 0,1
25.09.2017 09:00:00 10,0 10,0 4 2 11 6 N 1021,7 0,1
25.09.2017 08:00:00 9,6 9,6 7 4 - - ENE 1021,5 0,1
25.09.2017 07:00:00 9,6 9,6 7 4 7 4 ENE 1021,1 -
25.09.2017 06:00:00 9,6 9,6 4 2 7 4 - 1021,2 0,1
25.09.2017 05:00:00 8,1 7,8 4 2 - - N 1021,6 0,1
25.09.2017 04:00:00 8,0 7,6 7 4 7 4 NNE 1022,0 0,1
25.09.2017 03:00:00 9,1 8,7 0 0 4 2 N 1022,1 0,1
25.09.2017 02:00:00 9,8 9,4 2 1 - - - 1022,2 0,5
25.09.2017 01:00:00 10,8 10,2 4 2 11 6 N 1022,5 1,8
25.09.2017 00:00:00 10,4 9,8 4 2 7 4 - 1022,7 2,0
24.09.2017 23:00:00 10,8 10,2 7 4 - - ENE 1022,7 2,4
24.09.2017 22:00:00 11,6 11,1 4 2 7 4 N 1022,7 2,5
24.09.2017 21:00:00 12,6 11,3 2 1 7 4 - 1022,7 3,2
24.09.2017 20:00:00 14,5 12,0 4 2 - - N 1022,3 9
24.09.2017 19:00:00 16,8 12,1 7 4 14 8 ENE 1022,1 13
24.09.2017 18:00:00 18,9 12,2 9 5 18 10 ENE 1022,0 10
24.09.2017 17:00:00 19,7 12,2 7 4 - - E 1022,2 13
24.09.2017 16:00:00 19,7 10,7 11 6 18 10 ENE 1022,5 15
24.09.2017 15:00:00 19,2 10,9 8 4 14 8 E 1022,7 10
24.09.2017 14:00:00 19,1 12,1 7 4 - - E 1022,8 9
24.09.2017 13:00:00 17,3 12,7 8 4 18 10 E 1023,0 2,8
24.09.2017 12:00:00 13,4 12,3 4 2 11 6 - 1023,3 2,7
24.09.2017 11:00:00 10,8 10,7 4 2 - - N 1023,7 0,2
24.09.2017 10:00:00 10,1 10,1 4 2 7 4 - 1023,5 0,1
24.09.2017 09:00:00 8,3 8,3 4 2 4 2 N 1023,2 0,1
24.09.2017 08:00:00 7,6 7,6 4 2 - - N 1023,1 -
24.09.2017 07:00:00 7,5 7,5 4 2 4 2 N 1022,7 -
24.09.2017 06:00:00 6,6 6,6 4 2 4 2 N 1022,6 -
24.09.2017 05:00:00 5,8 5,8 4 2 - - N 1023,0 -
24.09.2017 04:00:00 6,0 5,7 0 0 0 0 N 1022,7 0,4
24.09.2017 03:00:00 6,3 6,0 4 2 0 0 N 1022,7 0,1
24.09.2017 02:00:00 6,5 6,2 0 0 - - N 1023,0 2,9
24.09.2017 01:00:00 6,8 6,5 2 1 0 0 - 1023,2 5
24.09.2017 00:00:00 8,0 7,8 4 2 0 0 N 1023,5 0,3
23.09.2017 23:00:00 8,5 8,0 0 0 - - N 1023,3 -
23.09.2017 22:00:00 9,1 8,7 4 2 0 0 N 1023,7 0,1
23.09.2017 21:00:00 10,1 9,1 4 2 0 0 N 1023,5 8
23.09.2017 20:00:00 12,0 9,9 0 0 - - N 1023,2 5
23.09.2017 19:00:00 14,6 9,8 4 2 11 6 N 1023,2 19
23.09.2017 18:00:00 16,6 9,9 7 4 11 6 E 1023,0 20
23.09.2017 17:00:00 17,6 9,6 4 2 - - N 1023,2 20
23.09.2017 16:00:00 17,3 9,3 8 4 14 8 NE 1023,8 10
23.09.2017 15:00:00 16,0 8,9 7 4 11 6 N 1024,7 20
23.09.2017 14:00:00 14,7 10,2 4 2 - - N 1024,9 13
23.09.2017 13:00:00 12,0 11,4 5 3 11 6 ENE 1025,4 9
23.09.2017 12:00:00 11,3 11,3 5 3 7 4 E 1025,5 1,7
23.09.2017 11:00:00 11,1 11,1 4 2 - - N 1025,7 0,4
23.09.2017 10:00:00 9,8 9,8 2 1 7 4 - 1025,4 0,1
23.09.2017 09:00:00 8,8 8,7 0 0 7 4 N 1025,0 0,1
23.09.2017 08:00:00 5,1 5,1 4 2 - - N 1025,2 0,2
23.09.2017 07:00:00 5,1 5,1 4 2 4 2 N 1024,9 0,1
23.09.2017 06:00:00 5,6 5,4 4 2 4 2 N 1024,7 0,1
23.09.2017 05:00:00 6,8 6,6 4 2 - - N 1024,5 0,2
23.09.2017 04:00:00 7,1 6,9 4 2 4 2 N 1024,7 0,2
23.09.2017 03:00:00 7,4 7,1 4 2 4 2 N 1024,5 0,1
23.09.2017 02:00:00 8,5 8,3 4 2 - - N 1024,2 0,1
23.09.2017 01:00:00 9,0 8,8 4 2 4 2 N 1024,0 0,1
23.09.2017 00:00:00 10,3 9,8 4 2 7 4 N 1023,8 0,1
22.09.2017 23:00:00 12,0 11,2 5 3 - - W 1023,7 2,7
22.09.2017 22:00:00 14,5 12,3 4 2 11 6 N 1023,2 20
22.09.2017 21:00:00 15,6 12,8 4 2 11 6 N 1022,8 20
22.09.2017 20:00:00 15,1 13,6 5 3 - - W 1022,2 10
22.09.2017 19:00:00 16,8 12,0 7 4 18 10 WSW 1021,6 20
22.09.2017 18:00:00 18,2 12,3 11 6 18 10 SW 1021,2 20
22.09.2017 17:00:00 17,6 12,7 11 6 - - WSW 1021,1 15
22.09.2017 16:00:00 18,0 13,3 11 6 18 10 SW 1021,0 20
22.09.2017 15:00:00 19,0 10,6 14 8 18 10 WSW 1020,7 20
22.09.2017 14:00:00 19,1 10,8 11 6 - - WSW 1020,7 20
22.09.2017 13:00:00 18,2 10,0 4 2 14 8 N 1020,6 15
22.09.2017 12:00:00 17,1 10,8 4 2 7 4 N 1020,7 15
22.09.2017 11:00:00 15,0 11,2 4 2 - - N 1020,7 15
22.09.2017 10:00:00 13,3 10,9 4 2 7 4 N 1020,5 15
22.09.2017 09:00:00 11,1 10,0 4 2 7 4 N 1020,3 15
22.09.2017 08:00:00 7,6 7,4 4 2 - - N 1020,2 15
22.09.2017 07:00:00 7,5 7,2 4 2 4 2 N 1019,7 8
22.09.2017 06:00:00 7,6 7,3 4 2 4 2 N 1019,7 15
22.09.2017 05:00:00 8,0 7,6 4 2 - - N 1019,7 1,5
22.09.2017 04:00:00 8,3 7,7 4 2 7 4 - 1019,7 4,8
22.09.2017 03:00:00 8,3 8,0 4 2 4 2 N 1020,0 6
22.09.2017 02:00:00 8,3 8,0 4 2 - - N 1020,1 1,5
22.09.2017 01:00:00 8,6 8,1 0 0 0 0 N 1020,0 4,2
22.09.2017 00:00:00 9,0 8,5 0 0 0 0 N 1019,8 0,1
21.09.2017 23:00:00 9,8 9,3 0 0 - - N 1020,0 10
21.09.2017 22:00:00 10,5 9,5 2 1 4 2 - 1019,8 7
21.09.2017 21:00:00 11,6 10,0 0 0 0 0 N 1019,7 20
21.09.2017 20:00:00 13,3 9,7 2 1 - - - 1019,3 0,6
21.09.2017 19:00:00 15,8 9,5 4 2 11 6 N 1019,1 20
21.09.2017 18:00:00 17,8 8,5 4 2 14 8 N 1019,0 20
21.09.2017 17:00:00 18,7 8,7 7 4 - - SE 1019,1 20
21.09.2017 16:00:00 17,9 7,4 4 2 14 8 N 1019,3 20
21.09.2017 15:00:00 17,9 8,5 7 4 14 8 S 1019,7 20
21.09.2017 14:00:00 18,1 9,0 7 4 - - S 1020,1 20
21.09.2017 13:00:00 17,7 8,9 11 6 18 10 SSW 1020,6 20
21.09.2017 12:00:00 17,2 8,8 11 6 18 10 SSW 1020,8 20
21.09.2017 11:00:00 14,8 8,4 7 4 - - SSW 1021,2 20
21.09.2017 10:00:00 13,4 8,7 7 4 18 10 SSW 1021,2 20
21.09.2017 09:00:00 - - - - - - - - -
21.09.2017 08:00:00 8,3 7,9 47 25 - - N 1021,0 20
21.09.2017 07:00:00 8,5 7,2 4 2 11 6 N 1020,8 20
21.09.2017 06:00:00 8,6 7,3 4 2 11 6 N 1020,8 20
21.09.2017 05:00:00 8,6 7,5 5 3 - - SSW 1021,0 10
21.09.2017 04:00:00 8,9 7,8 4 2 11 6 N 1021,1 20
21.09.2017 03:00:00 9,3 8,1 4 2 11 6 N 1021,2 19
21.09.2017 02:00:00 9,3 8,0 4 2 - - N 1021,2 20
21.09.2017 01:00:00 9,7 8,4 4 2 11 6 N 1021,3 20
21.09.2017 00:00:00 10,8 9,0 4 2 11 6 N 1021,2 20
20.09.2017 23:00:00 11,3 9,3 4 2 - - N 1021,2 20
20.09.2017 22:00:00 12,1 9,6 4 2 4 2 N 1021,0 19
20.09.2017 21:00:00 13,1 9,8 4 2 7 4 N 1021,0 20
20.09.2017 20:00:00 14,1 10,1 4 2 - - N 1020,7 20
20.09.2017 19:00:00 15,3 9,8 4 2 14 8 N 1020,5 20
20.09.2017 18:00:00 17,2 9,1 4 2 7 4 N 1020,2 25
20.09.2017 17:00:00 17,4 8,8 4 2 - - N 1020,5 20
20.09.2017 16:00:00 16,9 9,2 11 6 22 12 WSW 1020,8 20
20.09.2017 15:00:00 17,1 8,5 18 10 29 16 WSW 1020,8 20
20.09.2017 14:00:00 15,9 9,0 11 6 - - WSW 1021,2 20
20.09.2017 13:00:00 15,0 8,8 14 8 25 14 SW 1021,6 20

tt = Température de l'air
td = dewpoint
ff = Vitesse du vent
fx = gusts
dd = Direction du vent
ppp = reduced air pressure
vv = visibility

stations d'obs. à proximité